Powrót do katalogu

STARLINK-2533

AktywnyŁącznośćVLEO
NORAD 48294·PAYLOAD·🇺🇸 United States

Wystrzelony Apr 29, 2021 z Cape Canaveral Space Force Station

Loading…

Następne Przeloty (najbliższe 24 godziny)

TLE

ŚwieżeSource: CelesTrak SupGP

Epoka: Sep 14, 2026, 21:51 UTC

1 48294C 21036U   26257.91090278  .00053181  00000+0  17098-2 0  2578
2 48294  53.1582 274.7647 0001250  91.1211 271.9138 15.31682304    18

Śledź STARLINK-2533 w czasie rzeczywistym z AllMySat

Download on the App Store